Weather History for Big Bear City, CA

Change the Weather History Date:

Friday, December 7, 2012

  Actual Average (KBUO) Record (KBUO)
Temperature  
Mean Temperature 37 °F -  
Max Temperature 51 °F 59 °F 69 °F (1996)
Min Temperature 23 °F 42 °F 32 °F (1998)
Degree Days  
Heating Degree Days 28    
Moisture  
Dew Point 19 °F    
Average Humidity 60    
Maximum Humidity 86    
Minimum Humidity 14    
Precipitation  
Precipitation 0.00 in - - ()
Sea Level Pressure  
Sea Level Pressure 30.11 in    
Wind  
Wind Speed 1 mph (East)    
Max Wind Speed 10 mph    
Max Gust Speed -    
Visibility 10 miles    
Events      
Averages and records for this station are not official NWS values.
T = Trace of Precipitation, MM = Missing Value Source: NWS Daily Summary

Daily Weather History Graph

Daily Weather History Graph

Search for Another Location

Airport:

Trip Planner

Search our weather history database for the weather conditions in past years. The results will help you decide how hot, cold, wet, or windy it might be!

Date:

Astronomy

Dec. 07, 2012 Rise Set
Actual Time 6:40 AM PST 4:37 PM PST
Civil Twilight 6:13 AM PST 5:05 PM PST
Nautical Twilight 5:41 AM PST 5:36 PM PST
Astronomical Twilight 5:11 AM PST 6:06 PM PST
Moon 12:19 AM PST (12/7) 12:24 PM PST (12/7)
Length of Visible Light 10h 52m
Length of Day
9h 56m
Last Quarter, 37% of the Moon is Illuminated
Dec 7
Last Quarter
Dec 13
New
Dec 19
First Quarter
Dec 28
Full
Jan 4
Last Quarter

Hourly Weather History & Observations

Time (PST) Temp. Windchill Dew Point Humidity Pressure Visibility Wind Dir Wind Speed Gust Speed Precip Events Conditions
12:15 AM 26.6 °F - 23.0 °F 86% 30.09 in 10.0 mi Calm Calm - N/A   Clear
12:35 AM 26.6 °F - 23.0 °F 86% 30.09 in 10.0 mi Calm Calm - N/A   Clear
12:55 AM 26.6 °F - 23.0 °F 86% 30.10 in 10.0 mi Calm Calm - N/A   Clear
1:15 AM 26.6 °F - 23.0 °F 86% 30.10 in 10.0 mi Calm Calm - N/A   Clear
1:35 AM 26.6 °F - 23.0 °F 86% 30.10 in 10.0 mi Calm Calm - N/A   Clear
1:55 AM 26.6 °F - 23.0 °F 86% 30.10 in 10.0 mi Calm Calm - N/A   Clear
2:15 AM 26.6 °F - 23.0 °F 86% 30.10 in 10.0 mi Calm Calm - N/A   Clear
2:35 AM 26.6 °F - 21.2 °F 80% 30.09 in 10.0 mi Calm Calm - N/A   Clear
2:55 AM 26.6 °F - 21.2 °F 80% 30.09 in 10.0 mi Calm Calm - N/A   Clear
3:15 AM 26.6 °F - 21.2 °F 80% 30.08 in 10.0 mi Calm Calm - N/A   Clear
3:35 AM 24.8 °F - 21.2 °F 86% 30.08 in 10.0 mi Calm Calm - N/A   Clear
3:55 AM 24.8 °F - 21.2 °F 86% 30.08 in 7.0 mi Calm Calm - N/A   Clear
4:15 AM 24.8 °F - 21.2 °F 86% 30.08 in 10.0 mi Calm Calm - N/A   Clear
4:35 AM 23.0 °F - 19.4 °F 86% 30.08 in 10.0 mi Calm Calm - N/A   Clear
4:55 AM 23.0 °F - 19.4 °F 86% 30.08 in 10.0 mi Calm Calm - N/A   Clear
5:15 AM 23.0 °F - 19.4 °F 86% 30.09 in 10.0 mi Calm Calm - N/A   Clear
5:35 AM 23.0 °F - 19.4 °F 86% 30.09 in 10.0 mi Calm Calm - N/A   Clear
5:55 AM 23.0 °F - 19.4 °F 86% 30.09 in 10.0 mi Calm Calm - N/A   Clear
6:15 AM 23.0 °F - 19.4 °F 86% 30.10 in 10.0 mi Calm Calm - N/A   Clear
6:35 AM 23.0 °F - 17.6 °F 80% 30.11 in 10.0 mi Calm Calm - N/A   Clear
6:55 AM 23.0 °F - 17.6 °F 80% 30.11 in 10.0 mi Calm Calm - N/A   Clear
7:15 AM 23.0 °F - 19.4 °F 86% 30.12 in 10.0 mi Calm Calm - N/A   Clear
7:35 AM 26.6 °F - 21.2 °F 80% 30.12 in 10.0 mi Calm Calm - N/A   Clear
7:55 AM 26.6 °F - 23.0 °F 86% 30.13 in 10.0 mi Calm Calm - N/A   Clear
8:15 AM 30.2 °F - 24.8 °F 80% 30.12 in 10.0 mi Calm Calm - N/A   Clear
8:35 AM 32.0 °F - 26.6 °F 80% 30.13 in 10.0 mi Calm Calm - N/A   Clear
8:55 AM 35.6 °F 31.7 °F 26.6 °F 70% 30.13 in 10.0 mi East 4.6 mph - N/A   Clear
9:15 AM 39.2 °F 37.0 °F 26.6 °F 61% 30.14 in 10.0 mi ENE 3.5 mph - N/A   Clear
9:35 AM 44.6 °F 40.7 °F 32.0 °F 61% 30.14 in 10.0 mi East 6.9 mph - N/A   Clear
9:55 AM 46.4 °F 43.5 °F 32.0 °F 57% 30.14 in 10.0 mi SE 5.8 mph - N/A   Clear
10:15 AM 46.4 °F 41.5 °F 32.0 °F 57% 30.13 in 10.0 mi East 10.4 mph - N/A   Clear
10:35 AM 48.2 °F - 32.0 °F 54% 30.14 in 10.0 mi East 6.9 mph - N/A   Clear
10:55 AM 48.2 °F - 30.2 °F 50% 30.13 in 10.0 mi ESE 9.2 mph - N/A   Clear
11:15 AM 48.2 °F - 28.4 °F 46% 30.13 in 10.0 mi ENE 9.2 mph - N/A   Clear
11:35 AM 50.0 °F - 28.4 °F 43% 30.12 in 10.0 mi East 9.2 mph - N/A   Clear
11:55 AM 50.0 °F - 28.4 °F 43% 30.12 in 10.0 mi ENE 4.6 mph - N/A   Clear
12:15 PM 48.2 °F - 12.2 °F 24% 30.11 in 10.0 mi NNE 4.6 mph - N/A   Clear
12:35 PM 50.0 °F - 21.2 °F 32% 30.10 in 10.0 mi East 3.5 mph - N/A   Clear
1:15 PM 50.0 °F - 5.0 °F 16% 30.09 in 10.0 mi North 9.2 mph - N/A   Clear
1:35 PM 51.8 °F - 3.2 °F 14% 30.08 in 10.0 mi North 5.8 mph - N/A   Clear
1:55 PM 51.8 °F - 3.2 °F 14% 30.08 in 10.0 mi Calm Calm - N/A   Clear
2:15 PM 51.8 °F - 5.0 °F 15% 30.08 in 10.0 mi Calm Calm - N/A   Clear
2:35 PM 51.8 °F - 3.2 °F 14% 30.08 in 10.0 mi WNW 3.5 mph - N/A   Clear
2:55 PM 50.0 °F - 17.6 °F 28% 30.08 in 10.0 mi ESE 6.9 mph - N/A   Clear
3:15 PM 50.0 °F - 19.4 °F 30% 30.08 in 10.0 mi ESE 8.1 mph - N/A   Clear
3:35 PM 46.4 °F 43.5 °F 19.4 °F 34% 30.08 in 10.0 mi ESE 5.8 mph - N/A   Clear
3:55 PM 44.6 °F 41.4 °F 19.4 °F 37% 30.09 in 10.0 mi ESE 5.8 mph - N/A   Clear
4:15 PM 44.6 °F 42.2 °F 21.2 °F 39% 30.09 in 10.0 mi East 4.6 mph - N/A   Clear
4:35 PM 42.8 °F - 21.2 °F 42% 30.09 in 10.0 mi Calm Calm - N/A   Clear
4:55 PM 39.2 °F - 21.2 °F 49% 30.09 in 10.0 mi Calm Calm - N/A   Clear
5:15 PM 35.6 °F - 21.2 °F 56% 30.09 in 10.0 mi Calm Calm - N/A   Clear
5:35 PM 33.8 °F - 21.2 °F 60% 30.09 in 10.0 mi Calm Calm - N/A   Clear
5:55 PM 33.8 °F - 14.0 °F 44% 30.09 in 10.0 mi Calm Calm - N/A   Clear
6:15 PM 32.0 °F - 15.8 °F 51% 30.11 in 10.0 mi Calm Calm - N/A   Clear
6:35 PM 32.0 °F - 17.6 °F 55% 30.11 in 10.0 mi Calm Calm - N/A   Clear
6:55 PM 30.2 °F - 17.6 °F 60% 30.11 in 10.0 mi Calm Calm - N/A   Clear
7:15 PM 28.4 °F - 15.8 °F 59% 30.12 in 10.0 mi Calm Calm - N/A   Clear
7:35 PM 28.4 °F - 15.8 °F 59% 30.12 in 10.0 mi Calm Calm - N/A   Clear
7:55 PM 28.4 °F - 14.0 °F 55% 30.12 in 10.0 mi Calm Calm - N/A   Clear
8:15 PM 28.4 °F - 12.2 °F 51% 30.13 in 10.0 mi Calm Calm - N/A   Clear
8:35 PM 28.4 °F - 12.2 °F 51% 30.14 in 10.0 mi Calm Calm - N/A   Clear
8:55 PM 28.4 °F - 12.2 °F 51% 30.14 in 10.0 mi Calm Calm - N/A   Clear
9:15 PM 28.4 °F - 12.2 °F 51% 30.13 in 10.0 mi Calm Calm - N/A   Clear
9:35 PM 26.6 °F - 12.2 °F 55% 30.13 in 10.0 mi Calm Calm - N/A   Clear
9:55 PM 26.6 °F - 12.2 °F 55% 30.13 in 10.0 mi Calm Calm - N/A   Clear
10:15 PM 26.6 °F - 12.2 °F 55% 30.13 in 10.0 mi Calm Calm - N/A   Clear
10:35 PM 24.8 °F - 12.2 °F 59% 30.13 in 10.0 mi Calm Calm - N/A   Clear
10:55 PM 24.8 °F - 12.2 °F 59% 30.12 in 10.0 mi Calm Calm - N/A   Clear
11:15 PM 24.8 °F - 12.2 °F 59% 30.12 in 10.0 mi Calm Calm - N/A   Clear
11:35 PM 23.0 °F - 12.2 °F 63% 30.12 in 10.0 mi Calm Calm - N/A   Clear
11:55 PM 23.0 °F - 12.2 °F 63% 30.11 in 10.0 mi Calm Calm - N/A   Clear